SCP
0 0 0 0 0 0 0 0 0 0 0 0 0 0 0 0 0 0 0 0 0 0 0 0 0 0 0 0 0 0 0 0 0 0 0 0 0 0 0 0 0 0 0 0 0
0 0 0 0 0 0 0 0 0 0 0 0 0 0 0 0 0 0 0 0 0 0 0 0 0 0 0 0 0 0 0 0 0 0 0 0 0 0 0 0 0 0 0 0 0
0 0 0 0 0 0 0 0 0 0 0 0 0 0 0 0 0 0 0 0 0 0 0 0 0 0 0 0 0 0 0 0 0 0 0 0 0 0 0 0 0 0 0 0 0
0 0 0 0 0 0 0 0 0 0 0 0 0 0 0 0 0 0 0 0 0 0 0 0 0 0 0 0 0 0 0 0 0 0 0 0 0 0 0 0 0 0 0 0 0
0 0 0 0 0 0 0 0 0 0 0 0 0 0 0 0 0 0 0 0 0 0 0 0 0 0 0 0 0 0 0 0 0 0 0 0 0 0 0 0 0 0 0 0 0
0 0 0 0 0 0 0 0 0 0 0 0 0 0 0 0 0 0 0 0 0 0 0 0 0 0 0 0 0 0 0 0 0 0 0 0 0 0 0 0 0 0 0 0 0
0 0 0 0 0 0 0 0 0 0 0 0 0 0 0 0 0 0 0 0 0 0 0 0 0 0 0 0 0 0 0 0 0 0 0 0 0 0 0 0 0 0 0 0 0
0 0 0 0 0 0 0 0 0 0 0 0 0 0 0 0 0 0 0 0 0 0 0 0 0 0 0 0 0 0 0 0 0 0 0 0 0 0 0 0 0 0 0 0 0
0 0 0 0 0 0 0 0 0 0 0 0 0 0 0 0 0 0 0 0 0 0 0 0 0 0 0 0 0 0 0 0 0 0 0 0 0 0 0 0 0 0 0 0 -0
0 0 0 0 0 0 0 0 0 0 0 0 0 0 0 0 0 0 0 0 0 0 0 0 0 0 0 0 0 0 0 0 0 0 0 0 0 0 0 0 0 0 0 0 0
0 0 0 0 0 0 0 0 0 0 0 0 0 0 0 0 0 0 0 0 0 0 0 0 0 0 0 0 0 0 0 0 0 0 0 0 0 0 0 0 0 0 0 0 0
0 0 0 0 0 0 0 0 0 0 0 0 0 0 0 0 0 0 0 0 0 0 0 0 0 0 0 0 0 -0 0 0 0 0 0 0 0 0 0 0 0 0 0 0 0
0 0 0 0 0 0 0 0 0 0 0 0 0 0 0 0 0 0 0 0 0 0 0 0 0 0 0 0 0 0 0 0 0 0 0 0 0 0 0 0 0 0 0 0 0
0 0 0 0 0 0 0 0 0 0 0 0 0 0 0 0 0 0 0 0 0 0 0 0 0 0 0 0 -0 -0 0 0 0 0 0 0 0 0 0 0 0 0 0 0 0
0 0 0 0 0 0 0 0 0 0 0 0 0 0 0 0 0 0 0 0 0 0 0 0 0 0 0 0 0 0 0 0 0 0 0 0 0 0 0 0 0 0 0 0 0
0 0 0 0 0 0 0 0 0 0 0 0 0 0 0 0 0 0 0 0 0 0 0 0 0 0 0 0 0 0 0 0 0 0 0 0 0 0 0 0 0 0 0 0 0
0 0 0 0 0 0 0 0 0 0 0 0 0 0 0 0 0 0 0 0 0 0 0 0 0 0 -0 0 0 0 0 0 0 0 0 0 0 0 0 0 0 0 0 0 0
0 0 0 0 0 0 0 0 0 0 0 0 0 0 0 0 0 0 0 0 0 0 0 0 0 0 0 0 0 0 0 0 0 0 0 0 0 0 0 0 0 0 0 0 0
0 0 0 0 0 0 0 -0 -0 0 0 0 0 0 0 0 0 0 0 0 0 0 0 0 0 0 0 0 0 0 0 0 0 0 0 0 0 0 0 0 0 0 -0 0 0
0 0 0 0 0 0 0 0 0 0 0 0 0 0 0 0 0 0 0 0 0 0 0 0 0 0 0 0 0 0 -0 0 0 0 -0 0 0 0 0 0 0 -0 -0 -0 0
0 0 0 0 0 0 0 0 0 0 0 0 0 0 0 0 0 0 0 0 0 0 0 0 0 0 0 0 0 0 -0 0 0 0 0 0 0 0 0 0 0 0 -0 0 0
0 0 0 0 0 0 0 0 0 0 0 0 0 0 0 0 0 0 0 0 0 0 0 0 0 0 0 0 0 0 -0 0 0 0 0 0 0 0 0 0 0 0 -0 0 0
0 0 0 0 0 0 0 0 0 0 0 0 0 0 0 0 0 0 0 0 0 0 0 0 0 0 0 0 0 0 -0 0 0 0 0 0 0 0 0 0 0 0 -0 0 0
0 0 0 0 0 0 0 0 0 0 0 0 0 0 0 0 0 0 0 0 0 0 0 0 0 0 0 0 -0 0 -0 0 0 0 0 0 0 0 0 0 0 -0 -0 0 0
0 0 0 0 0 0 0 0 0 0 0 0 0 0 0 0 0 0 0 0 0 0 0 0 0 0 0 0 0 0 -0 -0 0 0 0 0 0 0 0 0 0 0 -0 0 -0
0 0 0 0 0 0 0 0 0 0 0 0 0 0 0 0 0 0 0 0 0 0 0 0 0 0 -0 0 0 0 -0 -0 0 0 0 0 0 0 0 0 0 0 0 0 -0
0 0 0 0 0 0 0 0 -0 0 -0 0 0 0 0 0 0 0 0 0 0 0 0 0 0 0 0 0 0 0 -0 -0 0 0 0 0 0 0 0 0 0 0 0 0 0
Wind_Speed_500mb
29 29 30 32 32 33 34 34 36 37 37 36 31 30 29 27 21 20 17 23 23 19 19 17 11 9 7 8 9 5 5 5 10 13 4 15 8 8 7 8 4 4 24 45 58
31 32 32 32 33 32 33 35 37 38 37 34 32 30 28 30 29 15 18 22 18 18 20 18 8 7 5 5 6 7 4 8 7 8 7 13 11 16 8 2 1 23 40 54 64
32 34 34 34 35 35 35 35 36 36 37 34 33 32 29 28 22 0 22 24 17 15 20 16 7 6 7 7 9 3 3 5 6 8 8 10 10 11 12 4 3 19 45 62 69
32 36 36 36 34 34 36 37 37 37 35 32 31 31 29 22 8 9 26 21 13 15 19 9 5 5 7 5 4 3 2 7 1 7 8 9 16 9 15 10 9 29 42 55 63
34 35 34 35 35 31 32 34 36 35 34 33 32 29 26 14 10 11 24 17 10 12 15 9 10 4 6 2 4 3 4 5 3 6 9 15 7 7 14 9 20 38 52 61 66
34 35 35 33 34 35 35 36 39 39 38 35 31 22 20 8 8 13 22 16 11 10 14 18 12 9 9 2 1 3 4 8 6 5 11 8 4 3 8 10 32 45 56 67 71
38 36 34 36 35 35 37 38 40 38 38 35 28 21 18 15 10 16 16 13 9 8 8 15 14 8 4 4 4 0 6 5 1 2 4 6 5 9 9 12 32 50 62 74 77
39 38 36 36 34 36 37 40 43 37 39 33 26 20 6 10 11 13 12 9 7 6 5 8 13 7 5 4 5 3 5 4 2 7 4 10 8 3 6 20 35 51 65 76 81
43 43 41 37 38 38 37 39 44 40 32 26 22 11 7 5 6 9 21 22 15 6 4 9 10 2 2 0 2 7 3 3 10 6 6 7 7 6 7 11 29 48 63 74 92
48 45 42 42 41 40 39 39 39 30 19 15 13 10 4 5 11 18 19 15 10 8 4 4 1 2 2 2 6 2 5 5 10 1 2 9 25 12 16 20 31 46 60 76 89
50 50 46 41 43 38 38 38 15 8 16 12 17 10 10 13 19 13 14 12 7 3 4 1 1 6 3 3 4 4 3 10 8 6 4 7 14 16 16 15 37 55 66 73 80
54 55 43 44 39 35 33 21 15 19 16 13 11 11 11 9 7 10 15 4 3 5 6 2 6 2 5 4 1 2 4 10 7 4 4 10 21 10 6 3 29 41 62 74 82
49 39 40 38 39 38 26 20 19 17 6 4 3 2 2 3 5 7 13 4 2 4 7 6 3 4 4 3 4 2 5 5 7 12 5 12 9 8 3 6 33 46 54 65 81
38 37 35 37 38 38 19 7 22 12 3 4 3 1 2 2 5 4 9 5 0 2 2 2 2 2 2 2 3 6 2 5 12 5 5 6 7 5 10 15 28 53 66 75 86
35 34 38 39 41 15 2 16 12 4 8 3 1 1 2 2 5 1 6 5 1 0 1 0 2 3 2 1 4 4 5 2 2 3 4 4 4 7 9 18 37 47 63 78 90
28 19 18 45 24 11 13 17 8 2 12 3 3 1 1 3 5 3 5 7 4 2 1 2 3 3 1 3 3 6 2 5 5 3 3 6 3 3 5 6 28 43 64 79 93
20 22 19 17 11 12 23 11 1 6 4 5 6 5 4 2 3 4 5 9 3 6 2 2 2 2 5 2 2 8 7 6 7 5 7 3 3 9 5 7 10 30 62 77 85
18 22 6 8 9 4 14 1 8 8 6 3 1 4 2 3 2 2 5 3 2 4 2 5 4 7 7 5 1 5 4 7 8 5 7 6 7 5 6 11 38 37 54 65 83
16 10 5 8 15 13 5 3 9 8 6 11 3 3 2 0 4 5 2 4 4 8 8 4 1 4 8 3 2 2 4 3 11 2 3 5 9 6 5 15 29 43 64 75 87
14 9 6 3 10 18 3 9 7 7 4 3 6 4 2 6 2 2 1 2 6 3 2 4 2 2 4 1 14 5 11 4 5 5 9 6 6 5 18 23 30 36 52 74 83
8 4 4 1 11 6 4 8 4 2 2 8 7 5 8 5 7 6 2 3 3 5 3 4 4 1 1 5 1 2 2 9 9 3 6 5 6 9 9 11 19 29 56 67 73
4 0 4 15 4 2 3 4 8 4 5 6 1 5 8 11 8 5 8 5 8 10 6 3 5 2 2 3 1 1 2 4 6 5 5 2 9 3 9 12 17 37 53 62 67
2 1 7 21 7 7 4 5 5 5 7 6 8 2 4 8 6 5 5 3 8 6 7 7 1 3 4 2 2 4 3 7 8 5 8 7 8 5 4 16 19 32 51 58 66
2 2 1 15 3 4 4 8 6 8 6 6 3 8 5 7 3 3 6 3 5 4 5 5 4 7 6 6 5 4 5 6 5 4 9 10 13 5 11 11 26 34 46 52 60
7 5 5 4 8 6 2 1 3 5 6 10 3 13 10 9 7 8 5 3 2 7 4 5 6 5 4 2 4 4 8 11 11 7 9 7 11 14 12 9 17 23 39 52 59
9 7 7 6 5 7 10 7 13 10 12 8 12 11 15 10 7 11 12 7 7 4 5 3 3 4 4 2 4 8 11 14 5 5 14 5 14 11 7 7 11 20 36 45 52
25 24 4 10 5 6 8 9 7 8 13 1 13 8 13 8 5 4 10 10 9 11 9 6 8 5 7 3 8 11 14 20 8 7 12 8 10 7 2 5 7 17 30 37 42
Wind_Direction_500mb
1 358 356 355 353 353 351 351 349 347 343 338 338 334 330 329 330 328 334 338 333 335 341 349 331 331 348 57 45 87 68 176 191 163 169 167 164 166 159 154 159 329 313 316 319
357 356 355 353 350 350 350 349 348 345 341 340 336 335 330 327 322 315 343 343 331 326 338 348 358 357 39 36 30 63 123 208 177 167 164 177 185 167 173 111 264 322 323 328 326
355 354 353 351 350 348 348 348 347 345 344 342 338 336 333 331 321 235 349 344 335 337 342 344 346 49 52 14 15 66 145 166 204 193 161 166 164 177 154 208 209 317 329 330 330
345 348 348 348 348 347 346 347 345 344 344 342 337 337 331 328 322 325 337 336 341 345 353 11 75 56 63 8 15 96 129 171 280 211 177 178 151 176 193 178 325 338 335 332 331
331 337 341 342 343 343 341 344 344 343 341 337 333 334 333 312 279 322 352 352 352 5 29 32 53 77 98 328 309 92 202 215 264 254 237 165 164 227 212 200 329 338 337 337 337
323 327 333 333 336 334 335 338 337 335 331 328 326 329 325 285 288 317 341 352 0 21 38 52 55 65 99 153 236 321 279 279 276 290 195 163 177 166 222 257 333 343 341 343 342
315 318 321 327 324 327 330 332 330 325 323 317 312 314 304 291 281 309 334 358 7 7 20 41 25 35 345 143 331 337 318 311 169 170 150 159 223 225 166 332 344 347 347 346 343
304 307 314 320 319 320 325 328 331 318 314 309 304 308 270 272 279 301 353 20 359 356 352 4 360 34 5 315 37 57 67 313 147 153 132 106 268 179 187 355 343 348 347 343 341
291 299 304 311 314 314 317 326 325 320 305 304 298 298 281 284 281 309 330 320 289 223 205 301 313 59 111 12 255 30 258 281 304 168 129 193 269 196 192 344 343 348 344 339 344
287 288 296 301 304 309 316 328 320 314 311 318 284 303 277 310 318 318 334 338 295 267 294 253 62 171 76 158 255 272 307 260 263 32 230 236 258 249 223 340 341 343 338 340 342
279 286 286 288 294 303 314 339 339 325 325 265 286 267 281 307 314 320 3 341 343 114 200 179 280 249 206 170 133 142 213 264 255 275 293 250 268 272 237 330 351 342 338 336 334
287 281 272 287 289 293 307 323 323 299 301 293 289 265 269 291 271 316 330 45 155 216 155 186 232 90 106 150 151 164 297 271 275 320 299 312 295 273 242 311 347 330 334 334 335
288 262 266 276 292 283 292 304 317 322 285 286 290 272 322 315 231 317 4 31 348 239 202 202 154 172 190 183 304 234 212 248 276 332 257 308 297 350 343 340 339 344 338 339 342
291 284 275 278 284 271 255 306 311 320 316 191 241 297 36 26 290 345 30 68 177 286 212 187 56 123 181 272 85 294 123 310 281 312 288 345 287 338 321 318 341 345 340 341 345
304 288 267 266 257 199 308 307 302 330 297 70 236 257 14 129 295 344 34 79 157 266 201 35 71 68 243 96 142 274 329 318 340 153 337 334 87 278 360 340 339 334 337 343 348
319 301 311 262 220 45 317 262 183 67 251 138 167 215 2 66 288 310 73 66 100 97 37 85 89 62 320 315 172 329 148 51 61 54 356 267 93 287 333 264 318 331 341 346 350
342 315 263 236 212 300 286 164 89 193 54 191 206 180 169 35 304 3 43 22 63 28 305 82 85 56 29 19 119 46 53 322 343 11 233 300 280 260 248 275 256 316 335 346 351
347 350 322 198 139 166 195 23 227 174 214 67 347 258 213 40 273 281 124 84 76 94 129 184 275 4 7 58 273 44 137 146 257 307 298 291 254 314 215 300 332 337 347 348 352
354 14 7 136 132 145 172 165 219 237 136 152 214 223 164 209 255 8 116 168 140 176 176 107 173 102 57 64 338 126 45 162 99 138 314 286 291 328 202 313 333 354 356 354 355
1 328 322 26 169 164 95 250 267 359 88 102 234 179 235 190 217 94 247 138 149 157 145 178 19 36 135 242 46 69 135 84 22 21 316 317 293 272 335 327 333 351 345 354 360
329 297 258 5 169 167 218 241 290 248 304 214 199 156 197 232 221 212 185 117 160 133 105 139 107 298 140 17 341 137 47 64 104 77 153 310 284 215 237 268 307 329 349 360 3
289 340 183 152 118 123 207 268 335 267 239 295 316 185 184 172 217 244 206 131 155 153 154 144 148 183 228 129 343 103 143 140 121 251 64 108 279 278 225 256 310 343 356 4 10
303 261 209 184 212 220 218 231 201 212 240 229 201 192 85 199 230 227 150 85 141 148 169 182 295 351 331 97 1 230 133 114 107 94 196 135 270 204 269 318 6 356 359 8 13
259 295 221 207 243 284 171 226 223 208 229 248 120 104 140 193 241 221 183 150 161 178 152 151 124 184 208 208 120 150 190 170 127 132 162 230 299 222 332 333 348 5 1 12 17
211 253 214 202 236 211 257 348 207 243 222 208 247 224 173 181 167 221 130 190 202 182 134 163 202 160 269 204 197 220 177 180 181 182 170 245 217 281 290 272 331 359 3 14 18
208 194 205 223 194 166 177 234 233 219 176 207 228 180 186 183 188 180 157 209 195 79 139 354 139 135 296 205 237 265 208 189 188 220 263 196 278 211 233 304 350 12 10 16 16
214 235 257 192 170 157 208 224 267 127 219 162 205 144 197 168 142 77 135 96 126 153 161 144 135 132 266 317 307 280 209 180 178 216 153 174 218 180 195 320 32 9 14 14 18
Wind_Speed_850mb
29 29 30 32 32 33 34 34 36 37 37 36 31 30 29 27 21 20 17 23 23 19 19 17 11 9 7 8 9 5 5 5 10 13 4 15 8 8 7 8 4 4 24 45 58
31 32 32 32 33 32 33 35 37 38 37 34 32 30 28 30 29 15 18 22 18 18 20 18 8 7 5 5 6 7 4 8 7 8 7 13 11 16 8 2 1 23 40 54 64
32 34 34 34 35 35 35 35 36 36 37 34 33 32 29 28 22 0 22 24 17 15 20 16 7 6 7 7 9 3 3 5 6 8 8 10 10 11 12 4 3 19 45 62 69
32 36 36 36 34 34 36 37 37 37 35 32 31 31 29 22 8 9 26 21 13 15 19 9 5 5 7 5 4 3 2 7 1 7 8 9 16 9 15 10 9 29 42 55 63
34 35 34 35 35 31 32 34 36 35 34 33 32 29 26 14 10 11 24 17 10 12 15 9 10 4 6 2 4 3 4 5 3 6 9 15 7 7 14 9 20 38 52 61 66
34 35 35 33 34 35 35 36 39 39 38 35 31 22 20 8 8 13 22 16 11 10 14 18 12 9 9 2 1 3 4 8 6 5 11 8 4 3 8 10 32 45 56 67 71
38 36 34 36 35 35 37 38 40 38 38 35 28 21 18 15 10 16 16 13 9 8 8 15 14 8 4 4 4 0 6 5 1 2 4 6 5 9 9 12 32 50 62 74 77
39 38 36 36 34 36 37 40 43 37 39 33 26 20 6 10 11 13 12 9 7 6 5 8 13 7 5 4 5 3 5 4 2 7 4 10 8 3 6 20 35 51 65 76 81
43 43 41 37 38 38 37 39 44 40 32 26 22 11 7 5 6 9 21 22 15 6 4 9 10 2 2 0 2 7 3 3 10 6 6 7 7 6 7 11 29 48 63 74 92
48 45 42 42 41 40 39 39 39 30 19 15 13 10 4 5 11 18 19 15 10 8 4 4 1 2 2 2 6 2 5 5 10 1 2 9 25 12 16 20 31 46 60 76 89
50 50 46 41 43 38 38 38 15 8 16 12 17 10 10 13 19 13 14 12 7 3 4 1 1 6 3 3 4 4 3 10 8 6 4 7 14 16 16 15 37 55 66 73 80
54 55 43 44 39 35 33 21 15 19 16 13 11 11 11 9 7 10 15 4 3 5 6 2 6 2 5 4 1 2 4 10 7 4 4 10 21 10 6 3 29 41 62 74 82
49 39 40 38 39 38 26 20 19 17 6 4 3 2 2 3 5 7 13 4 2 4 7 6 3 4 4 3 4 2 5 5 7 12 5 12 9 8 3 6 33 46 54 65 81
38 37 35 37 38 38 19 7 22 12 3 4 3 1 2 2 5 4 9 5 0 2 2 2 2 2 2 2 3 6 2 5 12 5 5 6 7 5 10 15 28 53 66 75 86
35 34 38 39 41 15 2 16 12 4 8 3 1 1 2 2 5 1 6 5 1 0 1 0 2 3 2 1 4 4 5 2 2 3 4 4 4 7 9 18 37 47 63 78 90
28 19 18 45 24 11 13 17 8 2 12 3 3 1 1 3 5 3 5 7 4 2 1 2 3 3 1 3 3 6 2 5 5 3 3 6 3 3 5 6 28 43 64 79 93
20 22 19 17 11 12 23 11 1 6 4 5 6 5 4 2 3 4 5 9 3 6 2 2 2 2 5 2 2 8 7 6 7 5 7 3 3 9 5 7 10 30 62 77 85
18 22 6 8 9 4 14 1 8 8 6 3 1 4 2 3 2 2 5 3 2 4 2 5 4 7 7 5 1 5 4 7 8 5 7 6 7 5 6 11 38 37 54 65 83
16 10 5 8 15 13 5 3 9 8 6 11 3 3 2 0 4 5 2 4 4 8 8 4 1 4 8 3 2 2 4 3 11 2 3 5 9 6 5 15 29 43 64 75 87
14 9 6 3 10 18 3 9 7 7 4 3 6 4 2 6 2 2 1 2 6 3 2 4 2 2 4 1 14 5 11 4 5 5 9 6 6 5 18 23 30 36 52 74 83
8 4 4 1 11 6 4 8 4 2 2 8 7 5 8 5 7 6 2 3 3 5 3 4 4 1 1 5 1 2 2 9 9 3 6 5 6 9 9 11 19 29 56 67 73
4 0 4 15 4 2 3 4 8 4 5 6 1 5 8 11 8 5 8 5 8 10 6 3 5 2 2 3 1 1 2 4 6 5 5 2 9 3 9 12 17 37 53 62 67
2 1 7 21 7 7 4 5 5 5 7 6 8 2 4 8 6 5 5 3 8 6 7 7 1 3 4 2 2 4 3 7 8 5 8 7 8 5 4 16 19 32 51 58 66
2 2 1 15 3 4 4 8 6 8 6 6 3 8 5 7 3 3 6 3 5 4 5 5 4 7 6 6 5 4 5 6 5 4 9 10 13 5 11 11 26 34 46 52 60
7 5 5 4 8 6 2 1 3 5 6 10 3 13 10 9 7 8 5 3 2 7 4 5 6 5 4 2 4 4 8 11 11 7 9 7 11 14 12 9 17 23 39 52 59
9 7 7 6 5 7 10 7 13 10 12 8 12 11 15 10 7 11 12 7 7 4 5 3 3 4 4 2 4 8 11 14 5 5 14 5 14 11 7 7 11 20 36 45 52
25 24 4 10 5 6 8 9 7 8 13 1 13 8 13 8 5 4 10 10 9 11 9 6 8 5 7 3 8 11 14 20 8 7 12 8 10 7 2 5 7 17 30 37 42
Wind_Direction_850mb
1 358 356 355 353 353 351 351 349 347 343 338 338 334 330 329 330 328 334 338 333 335 341 349 331 331 348 57 45 87 68 176 191 163 169 167 164 166 159 154 159 329 313 316 319
357 356 355 353 350 350 350 349 348 345 341 340 336 335 330 327 322 315 343 343 331 326 338 348 358 357 39 36 30 63 123 208 177 167 164 177 185 167 173 111 264 322 323 328 326
355 354 353 351 350 348 348 348 347 345 344 342 338 336 333 331 321 235 349 344 335 337 342 344 346 49 52 14 15 66 145 166 204 193 161 166 164 177 154 208 209 317 329 330 330
345 348 348 348 348 347 346 347 345 344 344 342 337 337 331 328 322 325 337 336 341 345 353 11 75 56 63 8 15 96 129 171 280 211 177 178 151 176 193 178 325 338 335 332 331
331 337 341 342 343 343 341 344 344 343 341 337 333 334 333 312 279 322 352 352 352 5 29 32 53 77 98 328 309 92 202 215 264 254 237 165 164 227 212 200 329 338 337 337 337
323 327 333 333 336 334 335 338 337 335 331 328 326 329 325 285 288 317 341 352 0 21 38 52 55 65 99 153 236 321 279 279 276 290 195 163 177 166 222 257 333 343 341 343 342
315 318 321 327 324 327 330 332 330 325 323 317 312 314 304 291 281 309 334 358 7 7 20 41 25 35 345 143 331 337 318 311 169 170 150 159 223 225 166 332 344 347 347 346 343
304 307 314 320 319 320 325 328 331 318 314 309 304 308 270 272 279 301 353 20 359 356 352 4 360 34 5 315 37 57 67 313 147 153 132 106 268 179 187 355 343 348 347 343 341
291 299 304 311 314 314 317 326 325 320 305 304 298 298 281 284 281 309 330 320 289 223 205 301 313 59 111 12 255 30 258 281 304 168 129 193 269 196 192 344 343 348 344 339 344
287 288 296 301 304 309 316 328 320 314 311 318 284 303 277 310 318 318 334 338 295 267 294 253 62 171 76 158 255 272 307 260 263 32 230 236 258 249 223 340 341 343 338 340 342
279 286 286 288 294 303 314 339 339 325 325 265 286 267 281 307 314 320 3 341 343 114 200 179 280 249 206 170 133 142 213 264 255 275 293 250 268 272 237 330 351 342 338 336 334
287 281 272 287 289 293 307 323 323 299 301 293 289 265 269 291 271 316 330 45 155 216 155 186 232 90 106 150 151 164 297 271 275 320 299 312 295 273 242 311 347 330 334 334 335
288 262 266 276 292 283 292 304 317 322 285 286 290 272 322 315 231 317 4 31 348 239 202 202 154 172 190 183 304 234 212 248 276 332 257 308 297 350 343 340 339 344 338 339 342
291 284 275 278 284 271 255 306 311 320 316 191 241 297 36 26 290 345 30 68 177 286 212 187 56 123 181 272 85 294 123 310 281 312 288 345 287 338 321 318 341 345 340 341 345
304 288 267 266 257 199 308 307 302 330 297 70 236 257 14 129 295 344 34 79 157 266 201 35 71 68 243 96 142 274 329 318 340 153 337 334 87 278 360 340 339 334 337 343 348
319 301 311 262 220 45 317 262 183 67 251 138 167 215 2 66 288 310 73 66 100 97 37 85 89 62 320 315 172 329 148 51 61 54 356 267 93 287 333 264 318 331 341 346 350
342 315 263 236 212 300 286 164 89 193 54 191 206 180 169 35 304 3 43 22 63 28 305 82 85 56 29 19 119 46 53 322 343 11 233 300 280 260 248 275 256 316 335 346 351
347 350 322 198 139 166 195 23 227 174 214 67 347 258 213 40 273 281 124 84 76 94 129 184 275 4 7 58 273 44 137 146 257 307 298 291 254 314 215 300 332 337 347 348 352
354 14 7 136 132 145 172 165 219 237 136 152 214 223 164 209 255 8 116 168 140 176 176 107 173 102 57 64 338 126 45 162 99 138 314 286 291 328 202 313 333 354 356 354 355
1 328 322 26 169 164 95 250 267 359 88 102 234 179 235 190 217 94 247 138 149 157 145 178 19 36 135 242 46 69 135 84 22 21 316 317 293 272 335 327 333 351 345 354 360
329 297 258 5 169 167 218 241 290 248 304 214 199 156 197 232 221 212 185 117 160 133 105 139 107 298 140 17 341 137 47 64 104 77 153 310 284 215 237 268 307 329 349 360 3
289 340 183 152 118 123 207 268 335 267 239 295 316 185 184 172 217 244 206 131 155 153 154 144 148 183 228 129 343 103 143 140 121 251 64 108 279 278 225 256 310 343 356 4 10
303 261 209 184 212 220 218 231 201 212 240 229 201 192 85 199 230 227 150 85 141 148 169 182 295 351 331 97 1 230 133 114 107 94 196 135 270 204 269 318 6 356 359 8 13
259 295 221 207 243 284 171 226 223 208 229 248 120 104 140 193 241 221 183 150 161 178 152 151 124 184 208 208 120 150 190 170 127 132 162 230 299 222 332 333 348 5 1 12 17
211 253 214 202 236 211 257 348 207 243 222 208 247 224 173 181 167 221 130 190 202 182 134 163 202 160 269 204 197 220 177 180 181 182 170 245 217 281 290 272 331 359 3 14 18
208 194 205 223 194 166 177 234 233 219 176 207 228 180 186 183 188 180 157 209 195 79 139 354 139 135 296 205 237 265 208 189 188 220 263 196 278 211 233 304 350 12 10 16 16
214 235 257 192 170 157 208 224 267 127 219 162 205 144 197 168 142 77 135 96 126 153 161 144 135 132 266 317 307 280 209 180 178 216 153 174 218 180 195 320 32 9 14 14 18